Location: Wien
(48.2082°N, 16.3738°E)
Time: 13:25:53
(UTC+01:00)

Vanguard 2 Rocket - All Passes

Search period start: 22 February 2024 00:00
Search period end: 03 March 2024 00:00
Orbit: 554 x 3310 km, 32.9° (Epoch: 22 February)

Date Brightness Start Highest point End Pass type
(mag) Time Alt. Az. Time Alt. Az. Time Alt. Az.
22 Feb - 13:27:32 10° S 13:34:29 20° SE 13:43:57 10° E daylight
22 Feb - 15:36:21 10° SW 15:47:14 40° SSE 16:03:29 10° ESE daylight
22 Feb - 17:48:29 10° WSW 18:02:15 46° S 18:20:33 10° ESE visible
22 Feb - 20:03:01 10° W 20:17:54 34° SSW 20:34:23 10° SSE visible
22 Feb - 22:23:03 10° WSW 22:32:14 15° SW 22:41:18 10° SSW visible
23 Feb - 12:30:12 10° SSE 12:33:10 11° SE 12:36:32 10° ESE daylight
23 Feb - 14:35:40 10° SSW 14:44:51 33° SSE 14:58:42 10° E daylight
23 Feb - 16:46:44 10° WSW 16:58:58 45° S 17:16:37 10° ESE daylight
23 Feb - 19:00:09 10° W 19:14:29 39° SSW 19:31:59 10° SE visible
23 Feb - 21:17:03 10° W 21:29:28 22° SW 21:42:21 10° S visible
24 Feb - 13:35:37 10° SSW 13:42:57 25° SE 13:53:36 10° E daylight
24 Feb - 15:45:26 10° SW 15:56:03 42° SSE 16:12:16 10° ESE daylight
24 Feb - 17:57:53 10° WSW 18:11:05 42° S 18:28:50 10° SE visible
24 Feb - 20:12:56 10° W 20:26:24 28° SSW 20:41:31 10° SSE visible
25 Feb - 12:36:37 10° S 12:41:32 16° SE 12:47:53 10° ESE daylight
25 Feb - 14:44:35 10° SW 14:53:35 36° SSE 15:07:40 10° ESE daylight
25 Feb - 16:56:04 10° WSW 17:07:52 43° S 17:25:04 10° ESE daylight
25 Feb - 19:09:50 10° W 19:23:10 33° SSW 19:39:33 10° SSE visible
25 Feb - 21:28:45 10° WSW 21:37:46 15° SW 21:47:11 10° SSW visible
26 Feb - 13:44:12 10° SSW 13:51:37 29° SSE 14:02:52 10° E daylight
26 Feb - 15:54:42 10° WSW 16:04:58 42° S 16:20:53 10° ESE daylight
26 Feb - 18:07:25 10° WSW 18:19:54 37° SSW 18:36:44 10° SE visible
26 Feb - 20:23:27 10° WSW 20:34:53 21° SW 20:47:44 10° S visible
27 Feb - 12:44:30 10° S 12:50:06 20° SE 12:57:52 10° ESE daylight
27 Feb - 14:53:42 10° SW 15:02:29 38° SSE 15:16:27 10° ESE daylight
27 Feb - 17:05:32 10° WSW 17:16:48 40° S 17:33:15 10° SE daylight
27 Feb - 19:19:51 10° WSW 19:31:50 27° SSW 19:46:29 10° SSE visible
28 Feb - 11:46:38 10° SSE 11:48:56 11° SE 11:51:33 10° ESE daylight
28 Feb - 13:53:07 10° SW 14:00:26 31° SSE 14:11:54 10° ESE daylight
28 Feb - 16:04:05 10° WSW 16:13:57 40° S 16:29:18 10° ESE daylight
28 Feb - 18:17:11 10° WSW 18:28:45 31° SSW 18:44:10 10° SSE visible
28 Feb - 20:35:20 10° WSW 20:43:23 15° SW 20:52:13 10° SSW visible
29 Feb - 12:53:01 10° SSW 12:58:49 23° SSE 13:07:18 10° ESE daylight
29 Feb - 15:03:00 10° WSW 15:11:28 38° S 15:25:04 10° ESE daylight
29 Feb - 17:15:11 10° WSW 17:25:46 34° SSW 17:41:04 10° SE daylight
29 Feb - 19:30:32 10° WSW 19:40:31 20° SSW 19:52:26 10° S visible
01 Mar - 11:53:48 10° S 11:57:34 15° SE 12:02:23 10° ESE daylight
01 Mar - 14:02:16 10° SW 14:09:24 33° SSE 14:20:45 10° ESE daylight
01 Mar - 16:13:38 10° WSW 16:23:00 36° S 16:37:26 10° SE daylight
01 Mar - 18:27:22 10° WSW 18:37:35 25° SSW 18:50:55 10° SSE visible
02 Mar - 13:01:56 10° SSW 13:07:42 26° SSE 13:16:28 10° ESE daylight
02 Mar - 15:12:27 10° WSW 15:20:34 35° S 15:33:28 10° ESE daylight
02 Mar - 17:25:04 10° WSW 17:34:45 28° SSW 17:48:23 10° SSE daylight
02 Mar - 19:42:53 10° WSW 19:49:14 13° SW 19:56:22 10° SSW visible
